Flag for Russia Weather past 2 weeks in Kemerovo, Russia

Now
73 °F

Sunny.


Feels Like: 77 °F
Forecast: 49 / 76 °F
Wind: 1 mph from Northwest

Location: Kemerovo

Current Time: Aug 23, 2014 at 4:58:02 PM

Latest Report: Aug 23, 2014 at 4:30 PM


Visibility: 10 mi

Pressure: 29.92 "Hg

Humidity: 41%

Dew point: 48 °F

Location of KemerovoLocation

Historic Weather in Kemerovo — Graph

°F

Kemerovo temperature yesterday

Maximum temperature yesterday: 70 °F (at 5:00 PM)
Minimum temperature yesterday: 48 °F (at 6:00 AM)
Average temperature yesterday: 59 °F

Past Weeks' High & Low Weather Summary

 TemperatureHumidityPressure
High84 °F (Aug 19, 5:00 PM)100% (Aug 12, 7:00 AM)30.21 "Hg (Aug 12, 7:00 AM)
Low41 °F (Aug 9, 5:00 AM)33% (Aug 20, 6:00 PM)29.53 "Hg (Aug 13, 4:30 PM)
Average66 °F70%29.87 "Hg
* Reported Aug 8 3:00 PM — Aug 23 3:30 PM, Kemerovo, Weather by CustomWeather, © 2014

Note: Actual official high and low records may vary slightly from our data, if they occured in-between our weather recording intervals... More about our weather records

Advertising

Kemerovo weather history for previous 24 hours

 ConditionsComfort  
Time TempWeatherWind HumidityBarometerVisibility
3:30 PM
Aug 23
73 °FSunny.No wind36%29.92 "Hg10 mi
3:00 PM73 °FSunny.6 mph36%29.92 "Hg10 mi
2:30 PM72 °FSunny.No wind38%29.92 "Hg10 mi
2:00 PM72 °FSunny.No wind38%29.92 "Hg10 mi
1:30 PM70 °FSunny.3 mph40%29.95 "Hg10 mi
1:00 PM70 °FSunny.No wind40%29.95 "Hg10 mi
12:30 PM66 °FSunny.3 mph52%29.95 "Hg10 mi
12:00 PM66 °FSunny.3 mph52%29.95 "Hg10 mi
11:30 AM64 °FSunny.3 mph60%29.95 "Hg10 mi
11:00 AM64 °FSunny.No wind60%29.95 "Hg10 mi
10:30 AM63 °FSunny.No wind64%29.95 "Hg10 mi
10:00 AM63 °FSunny.3 mph64%29.95 "Hg10 mi
9:30 AM57 °FSunny.1 mph67%29.95 "Hg10 mi
9:00 AM57 °FSunny.3 mph67%29.92 "Hg10 mi
8:30 AM52 °FSunny.3 mph88%29.92 "Hg10 mi
8:00 AM52 °FSunny.3 mph88%29.92 "Hg10 mi
7:30 AM52 °FSunny.6 mph88%29.92 "Hg10 mi
7:00 AM52 °FClear.3 mph88%29.92 "Hg10 mi
6:30 AM52 °FClear.3 mph88%29.92 "Hg10 mi
6:00 AM52 °FPassing clouds.3 mph88%29.92 "Hg4 mi
5:30 AM52 °FFog.6 mph88%29.95 "Hg2 mi
5:00 AM52 °FFog.6 mph88%29.95 "Hg3 mi
4:30 AM52 °FClear.3 mph88%29.95 "Hg10 mi
4:00 AM52 °FClear.3 mph88%29.95 "Hg10 mi
3:30 AM54 °FClear.3 mph82%29.95 "Hg10 mi
3:00 AM54 °FClear.3 mph82%29.95 "Hg10 mi
2:30 AM57 °FClear.3 mph63%29.95 "Hg10 mi
2:00 AM57 °FClear.3 mph63%29.95 "Hg10 mi
1:30 AM57 °FClear.No wind67%29.95 "Hg10 mi
1:00 AM57 °FClear.3 mph67%29.95 "Hg10 mi
12:30 AM57 °FClear.3 mph67%29.95 "Hg10 mi
12:00 AM57 °FClear.3 mph67%29.95 "Hg10 mi
11:30 PM
Aug 22
59 °FClear.3 mph68%29.95 "Hg10 mi
11:00 PM59 °FClear.3 mph68%29.95 "Hg10 mi
10:30 PM61 °FClear.3 mph59%29.95 "Hg10 mi
10:00 PM61 °FClear.3 mph59%29.95 "Hg10 mi
9:30 PM63 °FSunny.6 mph56%29.95 "Hg10 mi
9:00 PM63 °FSunny.3 mph56%29.95 "Hg10 mi
8:30 PM64 °FSunny.3 mph56%29.95 "Hg10 mi
8:00 PM64 °FSunny.3 mph56%29.95 "Hg10 mi
7:30 PM68 °FSunny.3 mph46%29.95 "Hg10 mi
7:00 PM68 °FSunny.3 mph46%29.95 "Hg10 mi
6:30 PM68 °FSunny.1 mph49%29.95 "Hg10 mi
6:00 PM68 °FSunny.3 mph49%29.95 "Hg10 mi
5:30 PM70 °FSunny.No wind43%29.95 "Hg10 mi
5:00 PM70 °FSunny.3 mph43%29.98 "Hg10 mi
4:30 PM68 °FBroken clouds.6 mph46%29.98 "HgN/A
4:00 PM68 °FBroken clouds.No wind46%29.98 "HgN/A
Weather by CustomWeather, © 2014

See weather overviewHow to use our weather pages